Home > Weather > Opole > Past weeks

Flag for Poland Weather for the Past 2 Weeks in Opole, Poland

Now
46 °F

Passing clouds.


Feels Like: 45 °F
Forecast: 39 / 45 °F
Wind: 3 mph from South

Location: Wroclaw Ii

Current Time: Feb 14, 2016 at 6:16:23 PM

Latest Report: Feb 14, 2016 at 5:30 PM


Visibility: N/A

Pressure: 29.33 "Hg

Humidity: 71%

Dew point: 37 °F

Location of OpoleLocation

Historic Weather in Opole — Graph

°F

Opole Temperature Yesterday

Maximum temperature yesterday: 39 °F (at 10:30 AM)
Minimum temperature yesterday: 27 °F (at 4:00 AM)
Average temperature yesterday: 35 °F

High & Low Weather Summary for the Past Weeks

 TemperatureHumidityPressure
High59 °F (Feb 2, 2:30 PM)100% (Jan 31, 4:30 AM)30.30 "Hg (Jan 31, 4:30 AM)
Low27 °F (Feb 13, 4:00 AM)41% (Jan 30, 6:00 PM)29.18 "Hg (Feb 10, 12:30 AM)
Average44 °F71%29.74 "Hg
* Reported Jan 30 5:00 PM — Feb 14 5:00 PM, Opole, Weather by CustomWeather, © 2016

Note: Actual official high and low records may vary slightly from our data, if they occured in-between our weather recording intervals... More about our weather records

Advertising

Opole Weather History for the Previous 24 Hours

 ConditionsComfort  
Time TempWeatherWind HumidityBarometerVisibility
5:00 PM
Sun, Feb 14
46 °FSunny.3 mph71%29.30 "Hg10 mi
4:30 PM52 °FSunny.1 mph58%29.30 "Hg10 mi
4:00 PM52 °FPassing clouds.3 mph58%29.30 "HgN/A
3:30 PM54 °FPassing clouds.6 mph58%29.30 "HgN/A
3:00 PM52 °FScattered clouds.7 mph62%29.30 "HgN/A
2:30 PM52 °FPassing clouds.10 mph62%29.27 "HgN/A
2:00 PM52 °FPassing clouds.10 mph62%29.27 "HgN/A
1:30 PM52 °FPassing clouds.10 mph62%29.27 "HgN/A
1:00 PM50 °FPassing clouds.10 mph67%29.27 "HgN/A
12:30 PM50 °FPassing clouds.8 mph67%29.27 "HgN/A
12:00 PM46 °FSunny.9 mph76%29.27 "Hg10 mi
11:30 AM45 °FSunny.8 mph76%29.24 "Hg10 mi
11:00 AM45 °FSunny.9 mph76%29.24 "Hg10 mi
10:30 AM41 °FSunny.10 mph81%29.24 "Hg10 mi
10:00 AM39 °FFog.7 mph87%29.24 "Hg3 mi
9:30 AM37 °FFog.8 mph93%29.24 "Hg2 mi
9:00 AM36 °FFog.8 mph93%29.24 "Hg2 mi
8:30 AM36 °FLight rain. Fog.10 mph93%29.24 "Hg2 mi
8:00 AM34 °FLight rain. Fog.6 mph100%29.24 "Hg1 mi
7:30 AM34 °FFog.7 mph93%29.24 "Hg1 mi
7:00 AM34 °FFog.8 mph93%29.24 "Hg1 mi
6:30 AM34 °FFog.8 mph93%29.27 "Hg2 mi
6:00 AM34 °FFog.7 mph93%29.27 "Hg1 mi
5:30 AM32 °FFog.9 mph100%29.27 "Hg1 mi
5:00 AM32 °FFog.10 mph100%29.27 "Hg0 mi
4:30 AM34 °FFog.8 mph93%29.27 "Hg0 mi
4:00 AM34 °FFog.9 mph100%29.27 "Hg0 mi
3:30 AM34 °FFog.7 mph100%29.27 "Hg0 mi
3:00 AM34 °FFog.7 mph100%29.27 "Hg0 mi
2:30 AM34 °FFog.8 mph100%29.30 "Hg0 mi
2:00 AM34 °FFog.8 mph100%29.30 "Hg0 mi
1:30 AM34 °FFog.6 mph100%29.30 "Hg0 mi
1:00 AM36 °FFog.6 mph93%29.30 "Hg0 mi
12:30 AM34 °FFog.6 mph93%29.30 "Hg1 mi
12:00 AM34 °FFog.5 mph93%29.33 "Hg1 mi
11:30 PM
Sat, Feb 13
34 °FFog.5 mph93%29.33 "Hg1 mi
10:30 PM37 °FFog.5 mph87%29.33 "Hg2 mi
10:00 PM37 °FFog.5 mph93%29.36 "Hg2 mi
9:30 PM37 °FFog.5 mph93%29.36 "Hg2 mi
9:00 PM37 °FFog.5 mph93%29.36 "Hg2 mi
8:30 PM37 °FFog.5 mph93%29.36 "Hg2 mi
8:00 PM37 °FFog.3 mph93%29.36 "Hg2 mi
7:30 PM37 °FFog.5 mph93%29.36 "Hg3 mi
7:00 PM37 °FFog.6 mph93%29.36 "Hg3 mi
6:30 PM37 °FFog.5 mph93%29.39 "Hg2 mi
6:00 PM37 °FFog.7 mph87%29.39 "Hg2 mi
Weather by CustomWeather, © 2016

See weather overviewHow to use our weather pages